Volver al catálogo

STARLINK-32436

ActivoComunicacionesVLEO
NORAD 61215·PAYLOAD·🇺🇸 United States

Lanzado Sep 20, 2024 desde Vandenberg Space Force Base

Loading…

Próximos Pases (próximas 24 horas)

TLE

ActualizadoSource: CelesTrak SupGP

Época: Sep 14, 2026, 21:06 UTC

1 61215C 24171R   26257.87965278 -.00044609  00000+0 -13175-2 0  2574
2 61215  53.1576 160.1300 0001190  96.6958 289.1729 15.34424313    18

Sigue STARLINK-32436 en tiempo real con AllMySat

Download on the App Store